STARLINK-11567, 62909

Orbit data source: Space-Track

STARLINK-11567, 62909 is a payload satellite owned by SpaceX/Seattle (US) in LEO that was launched on Sat, 08 Feb 2025 UTC via an FALCON 9 launch vehicle from the Air Force Eastern Test Range (AFETR). Payload-class satellites include a variety of spacecraft equipped with specific instruments for various scientific and technological missions. These include communications satellites like Starlink; space stations such as the ISS; scientific satellites like the Hubble; Earth observation satellites from companies like Planet Labs, Umbra, and HawkEye 360; GPS; miniature CubeSats for education and research; and military/defense satellites.

Loading next visibility...
Identifier
62909, 2025-027C
Orbit
LEO
Last TLE update
1 day ago
Origin
Manufacturer
SpaceX/Seattle
Mission
Operational Commercial Communications
Bus & Motor
STARLINK V2M, Unknown motor
Mass
730 kg wet, ~700 kg dry
Launch date (UTC)
2025-02-08 (3 months ago)
Launch vehicle
FALCON 9
Launch site
Air Force Eastern Test Range (AFETR)
Object type
Payload
Rocket body
Debris
Shape & HBR
Box + 2 Pan, 29 m
Radar Cross Section
36.964 m², Large (>1 m²)

Expand to show TLE details & history

TLE from 1 day ago
0 STARLINK-11567
1 62909U 25027C   25128.07892700  .00000928  00000-0  10732-4 0  9999
2 62909  42.9996  30.1369 0001346 273.6121  86.4593 15.70826164 15084
Epoch: 2025-05-08T01:53Z
Definitive object data (Epoch: 2025-05-08T01:53:39.292Z)
Latitude
-0.00001°
Longitude
135.56859°
Altitude
356.25 km
Speed
7.697 km/s
True Right ascension
02h 00m 32s
True Declination
0° 00' 00"
Sunlit
Object was in daylight at TLE epoch
Visualization TLE readout
Latitude
-43.12585°
Longitude
41.18816°
Altitude
368.934 km
Speed
7.689 km/s
Apparent Right ascension
23h 10m 24s
Apparent Declination
-55° 06' 31"
Sunlit
Object is in full shadow
Visualization observer readout
Local Sidereal Time
14:39:45
Azimuth
131.798° SE
Elevation
-52.597°
Doppler factor
1
Orbital elements
Apogee altitude
359.423 km
Perigee altitude
357.609 km
Semi-major axis
6,736.653 km
Eccentricity
0.0001346
Inclination
42.9996°
RAAN
30.1369°
Arg. of periapsis
273.6121°
True anomaly
86.47469°
Mean anomaly
86.4593°
Eccentric anomaly
86.467°
Mean motion
3.92534 °/min
BSTAR
0.000010732
Orbital period
91.71 mins
Loading maneuver chart data...
Loading SW <> Apogee altitude chart data...
Loading historical data...
Loading historical data...
Loading historical data...
Loading historical data...
Loading historical data...
Loading historical data...
Loading historical data...

STARLINK-11567 Visibility forecast

Observer location: undefined°, undefined°

Span
Click to sort rows by Start time (UTC) header in descending order
Start Az.
Max El. time (UTC)
Max El. Az.
Max El.
End time (UTC)
End Az.
4 mins2025-05-09 22:28:54.418Z296.157° NW2025-05-09 22:29:54.418Z340.342° N35.516°2025-05-09 22:32:54.418Z69.575° E
4 mins2025-05-10 00:04:54.418Z300.28° NW2025-05-10 00:06:54.418Z53.376° ENE36.632°2025-05-10 00:08:54.418Z89.839° E
4 mins2025-05-10 01:40:54.418Z263.113° W2025-05-10 01:42:54.418Z185.733° SSW28.776°2025-05-10 01:44:54.418Z141.649° SSE
|